Regional Weather Roundup
Issued by NWS Charleston, SC

Current Version | Previous Version | Graphics & Text | Print | Product List | Glossary On
Versions: 1 2 3 4 5 6 7 8 9 10 11 12 13 14 15 16 17 18 19 20 21 22 23 24 25 26 27 28 29 30 31 32 33 34 35 36 37 38 39 40 41 42 43 44 45 46 47 48 49 50
738
ASUS42 KCHS 261927
RWRCHS

Regional Weather Roundup
National Weather Service Charleston SC
300 PM EDT SAT MAY 26 2018

NOTE: "fair" indicates few or no clouds below 12,000 feet with no
significant weather and/or obstructions to visibility.

Not all stations are quality controlled. Use data with caution,
especially dewpoint observations.

SCZ027-030-031-034>040-042>050-262000-
...Southeast South Carolina...

CITY           SKY/WX    TMP DP  RH WIND       PRES   REMARKS
N Charleston   PTSUNNY   86  71  60 SW17      29.95F HX  91
Waterfront Prk   N/A     81  72  74 S12       29.81F
Mount Pleasant FAIR      82  72  69 S12G21    29.96F
Johns Island   FAIR      82  73  74 S13       29.96F
Pinopolis        N/A     82  73  74 S7        29.89F
Moncks Corner  FAIR      84  70  61 S8        29.94F
Summerville    FAIR      84  72  65 S10       29.95F
Beaufort MCAS  FAIR      84  74  71 S7        29.96F HX  91
Beaufort Arpt  FAIR      82  70  65 S15       29.96S
Hilton Head Is MOSUNNY   82  73  74 S12       29.98F
Walterboro     FAIR      82  72  69 S10       29.95F
Allendale      MOCLDY    86  72  62 S10       29.92F HX  92

...Southern Midlands and Pee Dee...

CITY           SKY/WX    TMP DP  RH WIND       PRES   REMARKS
Georgetown     FAIR      82  72  69 S10G16    29.97F
Kingstree      MOCLDY    77  75  94 CALM      29.94F
Orangeburg     FAIR      87  68  52 SW10      29.93F HX  90
Barnwell       MOCLDY    86  70  58 SE8       29.92F HX  90
Aiken          CLOUDY    81  72  74 SE10      29.96F
Manning        FAIR      81  64  57 S7        29.93F
Columbia       LGT RAIN  78  74  87 W13       29.91F
Sumter         FAIR      87  69  53 SW12      29.91F HX  91
Florence       PTSUNNY   88  70  55 SW8       29.93F HX  93
Myrtle Beach   FAIR      82  74  76 S18G25    29.97F
N Myrtle Beach FAIR      82  74  76 S13       29.97F

$$

GAZ063-065-086>088-099>101-113>116-118-119-134>141-150-262000-
...Southeast Georgia...

CITY           SKY/WX    TMP DP  RH WIND       PRES   REMARKS
Savannah Arpt  PTSUNNY   80  73  79 SW15      29.96F
Hunter AAF     FAIR      82  73  72 S10G17    29.94F
Fort Stewart   PTSUNNY   82  72  69 SE15      29.93F
Statesboro     PTSUNNY   86  69  57 S8        29.92F HX  90
Sylvania       MOCLDY    87  73  63 S7        29.93F HX  95
Claxton        FAIR      87  71  58 E7        29.93F HX  92

...CSRA, Central and far Southeast Georgia...

CITY           SKY/WX    TMP DP  RH WIND       PRES   REMARKS
Thomson        FAIR      82  71  70 CALM      29.97F
Augusta-Bush   PTSUNNY   85  73  67 E8        29.91F HX  91
Augusta-Daniel FAIR      85  71  63 S7        29.94F HX  90
Swainsboro     FAIR      86  72  62 S8        29.93F HX  92
Vidalia        PTSUNNY   86  66  51 S5        29.93F
Eastman        MOCLDY    87  61  41 S8        29.94F
Hazlehurst       N/A     86  67  51 SW6       29.91F
Alma           PTSUNNY   87  68  52 E6        29.92F HX  90
Waycross       LGT RAIN  84  71  63 SE13G18   29.92F
Jesup          MOCLDY    86  68  55 SE7       29.94F
Baxley         FAIR      84  70  61 S5        29.91F
Brunswick      PTSUNNY   82  68  61 SE13G18   29.96F
Saint Simons   FAIR      84  74  71 SE15G22   29.96F HX  91

$$

SCZ027-028-034-036>038-045-046-048>050-GAZ119-141-262000-
...Lake and Supplemental Coastal Observations...

STATION/POSITION TIME  TEMP    WIND        PRES    WAVE   SWELL
                       AIR SEA DIR/SP/G            HT/PER HT/PER/DIR
                 (UTC) (F)     (DEG/KT/KT) (MB)    (FT/S) (FT/S/D)
Winyah Bay       1845   82     190/ 14     1015.0F
Lake Murray      1820   82     220/  6/  9 1012.9F
ACE Basin NERRS  1845   82     160/  2     1015.0S
Fort Pulaski     1900   82 79  170/  8/ 14 1015.0
Sapelo Island    1900   85     160/ 12     1014.0

$$

ANZ835-935-AMZ111-154-330-350-352-354-370-450-454-472-262000-
...C-MAN and Buoy Observations...

STATION/POSITION TIME  TEMP    WIND        PRES    WAVE   SWELL
                       AIR SEA DIR/SP/G            HT/PER HT/PER/DIR
                 (UTC) (F)     (DEG/KT/KT) (MB)    (FT/S) (FT/S/D)
Buoy 41004       1900      77  190/ 10/ 12 1015.4
Buoy 41008       1850   77 78  160/ 10/ 12 1014.7F   2/ 8   2/120/ 8
Folly Beach CMAN 1900   79     180/ 13/ 16 1015.6F
Capers Nearshore 1908   78 79  200/ 12/ 16 1015.8F
Fripp Nearshore  1908   78 79  170/ 12/ 17 1014.5F


STATION/POSITION TIME  TEMP    WIND        PRES    WAVE   SWELL
                       AIR SEA DIR/SP/G            HT/PER HT/PER/DIR
                 (UTC) (F)     (DEG/KT/KT) (MB)    (FT/S) (FT/S/D)
5E St. Marys GA  1900      78                N/A     3/ 8
Frying Pan Buoy  1910   78 78  190/ 12/ 16 1015.6
Buoy 41025       1910   78 78  210/ 14/ 17 1015.6
Cape Lookout NC  1900          200/ 16/ 18 1015.6F
Buoy 41002       1910      79  180/ 10/ 12 1016.9
Buoy 41010       1910   78 79  120/ 16/ 19 1015.3
St Augustine FL  1900   78 80  140/ 17/ 18 1014.6F


$$




USA.gov is the U.S. government's official web portal to all federal, state and local government web resources and services.